SPACEBEE-158 (55100 NORAD) Tracking and Keplerian Element Data

This shows tracking and keplerian element data for the satellite.

Feedback or suggestion? Click here.




ElementValue
Catalog55100
NameSPACEBEE-158
Epoch Orbit1886
Epoch Day127.09483256
Epoch Year2023
RAAN187.5979
Inclination97.4801
Eccentricity0.0017482
Argument of Perigee142.9098
Mean Anonmoly217.3348
Mean Motion15.18582401
Decay Rate0.00023901
L11 55100U 23001CV 23127.09483256 .00023901 00000+0 11520-2 0 9994
L22 55100 97.4801 187.5979 0017482 142.9098 217.3348 15.18582401 18869



Live tracking and technical data element details for SPACEBEE-158 (NORAD 55100). SPACEBEE-158 can be tracked NOW for your location showing map with azimuth and elevation plus other details from your city location.







IsCatalogInMostPopularTable: catalog: 55100, numindb: -1

Insert: records affected: 1


GetName: 55100 SPACEBEE-158

Hit Count: inserted at: Mon, 05 Jun 2023 20:07:13 GMT